Flag for Germany Weather past 2 weeks in Rostock, Mecklenburg-Western Pomerania, Germany

Now
49 °F

Overcast.


Feels Like: 47 °F
Forecast: 41 / 49 °F
Wind: 7 mph from Northwest

Location: Rostock-Warnemuende

Current Time: Apr 27, 2015 at 5:57:21 PM

Latest Report: Apr 27, 2015 at 5:00 PM


Visibility: 25 mi

Pressure: 29.75 "Hg

Humidity: 62%

Dew point: 37 °F

Location of RostockLocation

Historic Weather in Rostock — Graph

°F

Rostock temperature yesterday

Maximum temperature yesterday: 60 °F (at 3:00 PM)
Minimum temperature yesterday: 45 °F (at 11:00 PM)
Average temperature yesterday: 52 °F

Past Weeks' High & Low Weather Summary

 TemperatureHumidityPressure
High64 °F (Apr 15, 1:00 PM)99% (Apr 24, 6:00 AM)30.33 "Hg (Apr 24, 6:00 AM)
Low37 °F (Apr 14, 7:00 AM)37% (Apr 12, 7:00 PM)29.68 "Hg (Apr 26, 4:00 PM)
Average48 °F77%30.05 "Hg
* Reported Apr 12 5:00 PM — Apr 27 5:00 PM, Rostock, Weather by CustomWeather, © 2015

Note: Actual official high and low records may vary slightly from our data, if they occured in-between our weather recording intervals... More about our weather records

Advertising

Rostock weather history for previous 24 hours

 ConditionsComfort  
Time TempWeatherWind HumidityBarometerVisibility
5:00 PM
Mon, Apr 27
49 °FOvercast.7 mph62%29.75 "Hg25 mi
4:00 PM48 °FOvercast.3 mph78%29.75 "Hg25 mi
3:00 PM47 °FOvercast.3 mph77%29.75 "Hg25 mi
2:00 PM47 °FOvercast.5 mph80%29.74 "Hg25 mi
1:00 PM46 °FOvercast.6 mph81%29.72 "Hg22 mi
12:00 PM45 °FLight rain. Overcast.7 mph83%29.72 "Hg14 mi
11:00 AM43 °FLight rain. Overcast.7 mph84%29.71 "Hg14 mi
10:00 AM44 °FLight rain. Overcast.7 mph87%29.70 "Hg12 mi
9:00 AM44 °FLight rain. Overcast.7 mph91%29.70 "Hg9 mi
8:00 AM43 °FLight rain. Low clouds.7 mph90%29.70 "Hg7 mi
7:00 AM44 °FLight rain. Overcast.7 mph91%29.69 "Hg6 mi
6:00 AM44 °FLight rain. Overcast.6 mph88%29.68 "Hg6 mi
5:00 AM45 °FLight rain. Overcast.6 mph87%29.69 "Hg8 mi
4:00 AM45 °FLow clouds.6 mph90%29.69 "Hg8 mi
3:00 AM46 °FLight rain. Overcast.5 mph91%29.70 "Hg7 mi
2:00 AM46 °FOvercast.5 mph88%29.71 "Hg12 mi
1:00 AM45 °FLow clouds.3 mph87%29.72 "Hg25 mi
12:00 AM45 °FLow clouds.5 mph90%29.72 "Hg22 mi
11:00 PM
Sun, Apr 26
45 °FLow clouds.7 mph90%29.71 "Hg22 mi
10:00 PM46 °FOvercast.7 mph86%29.71 "Hg31 mi
9:00 PM46 °FLow clouds.9 mph90%29.71 "Hg25 mi
8:00 PM47 °FLow clouds.9 mph95%29.70 "Hg14 mi
7:00 PM48 °FOvercast.8 mph97%29.70 "Hg6 mi
6:00 PM49 °FOvercast.7 mph95%29.69 "Hg5 mi
5:00 PM52 °FOvercast.6 mph93%29.68 "Hg5 mi
Weather by CustomWeather, © 2015

See weather overviewHow to use our weather pages